Tracking 29892 objects as of 21-Nov-2024
HD Live streaming from Space Station
objects crossing your sky now

CZ-2D DEB

Track CZ-2D DEB now!
10-day predictions


NORAD ID: 44609
Int'l Code: 2017-060B
Perigee: 572.2 km
Apogee: 625.8 km
Inclination: 97.6 °
Period: 96.5 minutes
Semi major axis: 6970 km
RCS: Unknown
Launch date: October 9, 2017
Source: People's Republic of China (PRC)
Launch site: Jiuquan Satellite Launch Center, China (JSC)

Note: This is SATELLITE DEBRIS
Your satellite tracking list
Your tracking list is empty




NASA's NSSDC Master Catalog

Two Line Element Set (TLE):
1 44609U 17060B   24325.04420908  .00009562  00000-0  93606-3 0  9999
2 44609  97.5834 351.8177 0038468  78.6061 281.9476 14.91937259379309
Source of the keplerian elements: AFSPC